User: anonymous
Location: Caltech
(34.1382°N, 118.1253°W)
Time: 04:46:38
(UTC-07:00)
Language:

PAYLOAD A - Orbit

View from above orbital plane
View from above orbital plane
View from above satellite
View from above satellite

Ground track
Ground track

The orbit data is extracted from the following two-line orbital elements,

1 27840U 03031A   14233.51475962  .00000006  00000-0  15466-4 0  6191
2 27840 098.2327 259.4832 0097842 346.2594 138.4717 14.38718617585106
Epoch (UTC): 21 August 2014 12:21:15
Eccentricity: 0.0097842
inclination: 98.2327°
perigee height: 693 km
apogee height: 832 km
right ascension of ascending node: 259.4832°
argument of perigee: 346.2594°
revolutions per day: 14.38718617
mean anomaly at epoch: 138.4717°
orbit number at epoch: 58510

The dashed part of the orbit path shows where the satellite is in the earth's shadow,  

DLR